Year,Month,Day,Hour,Minute,Value (Times are PST for temperature in C)
2017,08,04,00,00,25.10
2017,08,04,00,01,25.10
2017,08,04,00,02,25.10
2017,08,04,00,03,25.10
2017,08,04,00,04,25.10
2017,08,04,00,05,25.10
2017,08,04,00,06,25.10
2017,08,04,00,07,25.10
2017,08,04,00,08,25.10
2017,08,04,00,09,25.10
2017,08,04,00,10,25.10
2017,08,04,00,11,25.10
2017,08,04,00,12,25.10
2017,08,04,00,13,25.10
2017,08,04,00,14,25.10
2017,08,04,00,15,25.20
2017,08,04,00,16,25.20
2017,08,04,00,17,25.20
2017,08,04,00,18,25.20
2017,08,04,00,19,25.20
2017,08,04,00,20,25.20
2017,08,04,00,21,25.20
2017,08,04,00,22,25.20
2017,08,04,00,23,25.20
2017,08,04,00,24,25.20
2017,08,04,00,25,25.20
2017,08,04,00,26,25.20
2017,08,04,00,27,25.10
2017,08,04,00,28,25.10
2017,08,04,00,29,25.10
2017,08,04,00,30,25.20
2017,08,04,00,31,25.20
2017,08,04,00,32,25.20
2017,08,04,00,33,25.20
2017,08,04,00,34,25.20
2017,08,04,00,35,25.30
2017,08,04,00,36,25.30
2017,08,04,00,37,25.30
2017,08,04,00,38,25.20
2017,08,04,00,39,25.20
2017,08,04,00,40,25.20
2017,08,04,00,41,25.20
2017,08,04,00,42,25.20
2017,08,04,00,43,25.10
2017,08,04,00,44,25.10
2017,08,04,00,45,25.10
2017,08,04,00,46,25.10
2017,08,04,00,47,25.10
2017,08,04,00,48,25.10
2017,08,04,00,49,25.10
2017,08,04,00,50,25.10
2017,08,04,00,51,25.10
2017,08,04,00,52,25.10
2017,08,04,00,53,25.10
2017,08,04,00,54,25.00
2017,08,04,00,55,25.00
2017,08,04,00,56,25.00
2017,08,04,00,57,25.00
2017,08,04,00,58,25.00
2017,08,04,00,59,25.00
2017,08,04,01,00,25.00
2017,08,04,01,01,25.00
2017,08,04,01,02,25.00
2017,08,04,01,03,25.00
2017,08,04,01,04,25.00
2017,08,04,01,05,25.00
2017,08,04,01,06,25.00
2017,08,04,01,07,24.90
2017,08,04,01,08,24.90
2017,08,04,01,09,24.90
2017,08,04,01,10,24.90
2017,08,04,01,11,24.90
2017,08,04,01,12,24.90
2017,08,04,01,13,24.80
2017,08,04,01,14,24.80
2017,08,04,01,15,24.80
2017,08,04,01,16,24.70
2017,08,04,01,17,24.70
2017,08,04,01,18,24.70
2017,08,04,01,19,24.70
2017,08,04,01,20,24.70
2017,08,04,01,21,24.70
2017,08,04,01,22,24.70
2017,08,04,01,23,24.60
2017,08,04,01,24,24.60
2017,08,04,01,25,24.60
2017,08,04,01,26,24.70
2017,08,04,01,27,24.70
2017,08,04,01,28,24.70
2017,08,04,01,29,24.80
2017,08,04,01,30,24.80
2017,08,04,01,31,24.80
2017,08,04,01,32,24.80
2017,08,04,01,33,24.80
2017,08,04,01,34,24.80
2017,08,04,01,35,24.80
2017,08,04,01,36,24.80
2017,08,04,01,37,24.90
2017,08,04,01,38,24.90
2017,08,04,01,39,24.90
2017,08,04,01,40,24.90
2017,08,04,01,41,24.90
2017,08,04,01,42,25.00
2017,08,04,01,43,25.00
2017,08,04,01,44,25.00
2017,08,04,01,45,25.00
2017,08,04,01,46,25.10
2017,08,04,01,47,25.20
2017,08,04,01,48,25.20
2017,08,04,01,49,25.20
2017,08,04,01,50,25.30
2017,08,04,01,51,25.30
2017,08,04,01,52,25.40
2017,08,04,01,53,25.40
2017,08,04,01,54,25.50
2017,08,04,01,55,25.50
2017,08,04,01,56,25.60
2017,08,04,01,57,25.60
2017,08,04,01,58,25.60
2017,08,04,01,59,25.60
2017,08,04,02,00,25.50
2017,08,04,02,01,25.50
2017,08,04,02,02,25.50
2017,08,04,02,03,25.40
2017,08,04,02,04,25.40
2017,08,04,02,05,25.40
2017,08,04,02,06,25.40
2017,08,04,02,07,25.30
2017,08,04,02,08,25.30
2017,08,04,02,09,25.20
2017,08,04,02,10,25.20
2017,08,04,02,11,25.10
2017,08,04,02,12,25.00
2017,08,04,02,13,25.00
2017,08,04,02,14,24.90
2017,08,04,02,15,24.80
2017,08,04,02,16,24.80
2017,08,04,02,17,24.80
2017,08,04,02,18,24.70
2017,08,04,02,19,24.70
2017,08,04,02,20,24.70
2017,08,04,02,21,24.60
2017,08,04,02,22,24.60
2017,08,04,02,23,24.60
2017,08,04,02,24,24.50
2017,08,04,02,25,24.50
2017,08,04,02,26,24.50
2017,08,04,02,27,24.50
2017,08,04,02,28,24.40
2017,08,04,02,29,24.40
2017,08,04,02,30,24.40
2017,08,04,02,31,24.40
2017,08,04,02,32,24.40
2017,08,04,02,33,24.40
2017,08,04,02,34,24.40
2017,08,04,02,35,24.30
2017,08,04,02,36,24.30
2017,08,04,02,37,24.30
2017,08,04,02,38,24.30
2017,08,04,02,39,24.30
2017,08,04,02,40,24.30
2017,08,04,02,41,24.20
2017,08,04,02,42,24.20
2017,08,04,02,43,24.20
2017,08,04,02,44,24.10
2017,08,04,02,45,24.10
2017,08,04,02,46,24.10
2017,08,04,02,47,24.10
2017,08,04,02,48,24.00
2017,08,04,02,49,24.00
2017,08,04,02,50,23.90
2017,08,04,02,51,23.80
2017,08,04,02,52,23.70
2017,08,04,02,53,23.60
2017,08,04,02,54,23.50
2017,08,04,02,55,23.40
2017,08,04,02,56,23.30
2017,08,04,02,57,23.20
2017,08,04,02,58,23.10
2017,08,04,02,59,23.00
2017,08,04,03,00,23.00
2017,08,04,03,01,22.90
2017,08,04,03,02,22.90
2017,08,04,03,03,22.80
2017,08,04,03,04,22.80
2017,08,04,03,05,22.70
2017,08,04,03,06,22.70
2017,08,04,03,07,22.70
2017,08,04,03,08,22.70
2017,08,04,03,09,22.70
2017,08,04,03,10,22.70
2017,08,04,03,11,22.70
2017,08,04,03,12,22.70
2017,08,04,03,13,22.70
2017,08,04,03,14,22.70
2017,08,04,03,15,22.70
2017,08,04,03,16,22.70
2017,08,04,03,17,22.60
2017,08,04,03,18,22.60
2017,08,04,03,19,22.60
2017,08,04,03,20,22.50
2017,08,04,03,21,22.40
2017,08,04,03,22,22.40
2017,08,04,03,23,22.30
2017,08,04,03,24,22.30
2017,08,04,03,25,22.20
2017,08,04,03,26,22.20
2017,08,04,03,27,22.10
2017,08,04,03,28,22.10
2017,08,04,03,29,22.10
2017,08,04,03,30,22.00
2017,08,04,03,31,22.00
2017,08,04,03,32,21.90
2017,08,04,03,33,21.90
2017,08,04,03,34,21.90
2017,08,04,03,35,21.80
2017,08,04,03,36,21.80
2017,08,04,03,37,21.80
2017,08,04,03,38,21.80
2017,08,04,03,39,21.80
2017,08,04,03,40,21.70
2017,08,04,03,41,21.70
2017,08,04,03,42,21.70
2017,08,04,03,43,21.70
2017,08,04,03,44,21.60
2017,08,04,03,45,21.60
2017,08,04,03,46,21.60
2017,08,04,03,47,21.50
2017,08,04,03,48,21.50
2017,08,04,03,49,21.50
2017,08,04,03,50,21.40
2017,08,04,03,51,21.40
2017,08,04,03,52,21.40
2017,08,04,03,53,21.40
2017,08,04,03,54,21.30
2017,08,04,03,55,21.30
2017,08,04,03,56,21.30
2017,08,04,03,57,21.30
2017,08,04,03,58,21.30
2017,08,04,03,59,21.20
2017,08,04,04,00,21.20
2017,08,04,04,01,21.20
2017,08,04,04,02,21.10
2017,08,04,04,03,21.10
2017,08,04,04,04,21.00
2017,08,04,04,05,21.00
2017,08,04,04,06,20.90
2017,08,04,04,07,20.90
2017,08,04,04,08,20.80
2017,08,04,04,09,20.80
2017,08,04,04,10,20.80
2017,08,04,04,11,20.80
2017,08,04,04,12,20.70
2017,08,04,04,13,20.70
2017,08,04,04,14,20.70
2017,08,04,04,15,20.70
2017,08,04,04,16,20.60
2017,08,04,04,17,20.60
2017,08,04,04,18,20.60
2017,08,04,04,19,20.60
2017,08,04,04,20,20.50
2017,08,04,04,21,20.50
2017,08,04,04,22,20.50
2017,08,04,04,23,20.50
2017,08,04,04,24,20.50
2017,08,04,04,25,20.50
2017,08,04,04,26,20.40
2017,08,04,04,27,20.40
2017,08,04,04,28,20.40
2017,08,04,04,29,20.40
2017,08,04,04,30,20.40
2017,08,04,04,31,20.40
2017,08,04,04,32,20.40
2017,08,04,04,33,20.40
2017,08,04,04,34,20.40
2017,08,04,04,35,20.30
2017,08,04,04,36,20.30
2017,08,04,04,37,20.30
2017,08,04,04,38,20.30
2017,08,04,04,39,20.30
2017,08,04,04,40,20.30
2017,08,04,04,41,20.30
2017,08,04,04,42,20.30
2017,08,04,04,43,20.30
2017,08,04,04,44,20.30
2017,08,04,04,45,20.30
2017,08,04,04,46,20.30
2017,08,04,04,47,20.30
2017,08,04,04,48,20.30
2017,08,04,04,49,20.30
2017,08,04,04,50,20.30
2017,08,04,04,51,20.20
2017,08,04,04,52,20.20
2017,08,04,04,53,20.20
2017,08,04,04,54,20.20
2017,08,04,04,55,20.20
2017,08,04,04,56,20.20
2017,08,04,04,57,20.20
2017,08,04,04,58,20.20
2017,08,04,04,59,20.20
2017,08,04,05,00,20.20
2017,08,04,05,01,20.20
2017,08,04,05,02,20.10
2017,08,04,05,03,20.10
2017,08,04,05,04,20.10
2017,08,04,05,05,20.00
2017,08,04,05,06,20.00
2017,08,04,05,07,19.90
2017,08,04,05,08,19.80
2017,08,04,05,09,19.80
2017,08,04,05,10,19.70
2017,08,04,05,11,19.70
2017,08,04,05,12,19.60
2017,08,04,05,13,19.60
2017,08,04,05,14,19.60
2017,08,04,05,15,19.60
2017,08,04,05,16,19.50
2017,08,04,05,17,19.50
2017,08,04,05,18,19.40
2017,08,04,05,19,19.40
2017,08,04,05,20,19.40
2017,08,04,05,21,19.40
2017,08,04,05,22,19.40
2017,08,04,05,23,19.40
2017,08,04,05,24,19.30
2017,08,04,05,25,19.30
2017,08,04,05,26,19.30
2017,08,04,05,27,19.30
2017,08,04,05,28,19.20
2017,08,04,05,29,19.20
2017,08,04,05,30,19.10
2017,08,04,05,31,19.10
2017,08,04,05,32,19.10
2017,08,04,05,33,19.10
2017,08,04,05,34,19.00
2017,08,04,05,35,19.00
2017,08,04,05,36,19.00
2017,08,04,05,37,19.00
2017,08,04,05,38,19.00
2017,08,04,05,39,19.00
2017,08,04,05,40,19.00
2017,08,04,05,41,19.00
2017,08,04,05,42,19.00
2017,08,04,05,43,19.00
2017,08,04,05,44,19.00
2017,08,04,05,45,18.90
2017,08,04,05,46,18.90
2017,08,04,05,47,18.80
2017,08,04,05,48,18.80
2017,08,04,05,49,18.80
2017,08,04,05,50,18.80
2017,08,04,05,51,18.70
2017,08,04,05,52,18.70
2017,08,04,05,53,18.70
2017,08,04,05,54,18.60
2017,08,04,05,55,18.60
2017,08,04,05,56,18.60
2017,08,04,05,57,18.60
2017,08,04,05,58,18.60
2017,08,04,05,59,18.60
2017,08,04,06,00,18.60
2017,08,04,06,01,18.60
2017,08,04,06,02,18.50
2017,08,04,06,03,18.50
2017,08,04,06,04,18.50
2017,08,04,06,05,18.50
2017,08,04,06,06,18.40
2017,08,04,06,07,18.40
2017,08,04,06,08,18.40
2017,08,04,06,09,18.40
2017,08,04,06,10,18.40
2017,08,04,06,11,18.40
2017,08,04,06,12,18.30
2017,08,04,06,13,18.30
2017,08,04,06,14,18.30
2017,08,04,06,15,18.30
2017,08,04,06,16,18.30
2017,08,04,06,17,18.30
2017,08,04,06,18,18.30
2017,08,04,06,19,18.20
2017,08,04,06,20,18.20
2017,08,04,06,21,18.20
2017,08,04,06,22,18.20
2017,08,04,06,23,18.20
2017,08,04,06,24,18.20
2017,08,04,06,25,18.20
2017,08,04,06,26,18.20
2017,08,04,06,27,18.20
2017,08,04,06,28,18.10
2017,08,04,06,29,18.10
2017,08,04,06,30,18.10
2017,08,04,06,31,18.10
2017,08,04,06,32,18.10
2017,08,04,06,33,18.20
2017,08,04,06,34,18.10
2017,08,04,06,35,18.10
2017,08,04,06,36,18.10
2017,08,04,06,37,18.10
2017,08,04,06,38,18.10
2017,08,04,06,39,18.10
2017,08,04,06,40,18.00
2017,08,04,06,41,18.00
2017,08,04,06,42,18.00
2017,08,04,06,43,17.90
2017,08,04,06,44,17.90
2017,08,04,06,45,17.90
2017,08,04,06,46,17.80
2017,08,04,06,47,17.80
2017,08,04,06,48,17.80
2017,08,04,06,49,17.80
2017,08,04,06,50,17.80
2017,08,04,06,51,17.80
2017,08,04,06,52,17.80
2017,08,04,06,53,17.70
2017,08,04,06,54,17.70
2017,08,04,06,55,17.80
2017,08,04,06,56,17.80
2017,08,04,06,57,17.80
2017,08,04,06,58,17.80
2017,08,04,06,59,17.80
2017,08,04,07,00,17.80
2017,08,04,07,01,17.90
2017,08,04,07,02,17.90
2017,08,04,07,03,17.90
2017,08,04,07,04,17.90
2017,08,04,07,05,18.00
2017,08,04,07,06,18.00
2017,08,04,07,07,18.00
2017,08,04,07,08,18.10
2017,08,04,07,09,18.10
2017,08,04,07,10,18.10
2017,08,04,07,11,18.20
2017,08,04,07,12,18.20
2017,08,04,07,13,18.30
2017,08,04,07,14,18.30
2017,08,04,07,15,18.40
2017,08,04,07,16,18.40
2017,08,04,07,17,18.50
2017,08,04,07,18,18.50
2017,08,04,07,19,18.60
2017,08,04,07,20,18.60
2017,08,04,07,21,18.60
2017,08,04,07,22,18.70
2017,08,04,07,23,18.70
2017,08,04,07,24,18.70
2017,08,04,07,25,18.70
2017,08,04,07,26,18.70
2017,08,04,07,27,18.70
2017,08,04,07,28,18.70
2017,08,04,07,29,18.70
2017,08,04,07,30,18.70
2017,08,04,07,31,18.80
2017,08,04,07,32,18.80
2017,08,04,07,33,18.80
2017,08,04,07,34,18.80
2017,08,04,07,35,18.90
2017,08,04,07,36,19.00
2017,08,04,07,37,19.10
2017,08,04,07,38,19.20
2017,08,04,07,39,19.30
2017,08,04,07,40,19.30
2017,08,04,07,41,19.40
2017,08,04,07,42,19.50
2017,08,04,07,43,19.60
2017,08,04,07,44,19.60
2017,08,04,07,45,19.70
2017,08,04,07,46,19.80
2017,08,04,07,47,19.80
2017,08,04,07,48,19.80
2017,08,04,07,49,19.90
2017,08,04,07,50,19.90
2017,08,04,07,51,19.90
2017,08,04,07,52,20.00
2017,08,04,07,53,20.00
2017,08,04,07,54,20.00
2017,08,04,07,55,20.10
2017,08,04,07,56,20.10
2017,08,04,07,57,20.10
2017,08,04,07,58,20.10
2017,08,04,07,59,20.20
2017,08,04,08,00,20.20
2017,08,04,08,01,20.20
2017,08,04,08,02,20.20
2017,08,04,08,03,20.30
2017,08,04,08,04,20.30
2017,08,04,08,05,20.30
2017,08,04,08,06,20.40
2017,08,04,08,07,20.40
2017,08,04,08,08,20.40
2017,08,04,08,09,20.50
2017,08,04,08,10,20.60
2017,08,04,08,11,20.60
2017,08,04,08,12,20.70
2017,08,04,08,13,20.70
2017,08,04,08,14,20.80
2017,08,04,08,15,20.80
2017,08,04,08,16,20.90
2017,08,04,08,17,20.90
2017,08,04,08,18,21.00
2017,08,04,08,19,21.10
2017,08,04,08,20,21.10
2017,08,04,08,21,21.20
2017,08,04,08,22,21.30
2017,08,04,08,23,21.40
2017,08,04,08,24,21.40
2017,08,04,08,25,21.50
2017,08,04,08,26,21.60
2017,08,04,08,27,21.60
2017,08,04,08,28,21.70
2017,08,04,08,29,21.70
2017,08,04,08,30,21.70
2017,08,04,08,31,21.70
2017,08,04,08,32,21.80
2017,08,04,08,33,21.80
2017,08,04,08,34,21.80
2017,08,04,08,35,21.80
2017,08,04,08,36,21.80
2017,08,04,08,37,21.90
2017,08,04,08,38,21.90
2017,08,04,08,39,21.90
2017,08,04,08,40,22.00
2017,08,04,08,41,22.00
2017,08,04,08,42,22.10
2017,08,04,08,43,22.10
2017,08,04,08,44,22.10
2017,08,04,08,45,22.10
2017,08,04,08,46,22.20
2017,08,04,08,47,22.20
2017,08,04,08,48,22.30
2017,08,04,08,49,22.30
2017,08,04,08,50,22.40
2017,08,04,08,51,22.50
2017,08,04,08,52,22.50
2017,08,04,08,53,22.50
2017,08,04,08,54,22.60
2017,08,04,08,55,22.70
2017,08,04,08,56,22.70
2017,08,04,08,57,22.80
2017,08,04,08,58,22.90
2017,08,04,08,59,23.00
2017,08,04,09,00,23.10
2017,08,04,09,01,23.10
2017,08,04,09,02,23.20
2017,08,04,09,03,23.20
2017,08,04,09,04,23.20
2017,08,04,09,05,23.30
2017,08,04,09,06,23.30
2017,08,04,09,07,23.40
2017,08,04,09,08,23.40
2017,08,04,09,09,23.40
2017,08,04,09,10,23.40
2017,08,04,09,11,23.50
2017,08,04,09,12,23.50
2017,08,04,09,13,23.50
2017,08,04,09,14,23.50
2017,08,04,09,15,23.60
2017,08,04,09,16,23.60
2017,08,04,09,17,23.60
2017,08,04,09,18,23.70
2017,08,04,09,19,23.70
2017,08,04,09,20,23.80
2017,08,04,09,21,23.80
2017,08,04,09,22,23.80
2017,08,04,09,23,23.90
2017,08,04,09,24,23.90
2017,08,04,09,25,23.90
2017,08,04,09,26,24.00
2017,08,04,09,27,24.10
2017,08,04,09,28,24.10
2017,08,04,09,29,24.20
2017,08,04,09,30,24.20
2017,08,04,09,31,24.30
2017,08,04,09,32,24.30
2017,08,04,09,33,24.30
2017,08,04,09,34,24.40
2017,08,04,09,35,24.40
2017,08,04,09,36,24.40
2017,08,04,09,37,24.50
2017,08,04,09,38,24.60
2017,08,04,09,39,24.70
2017,08,04,09,40,24.70
2017,08,04,09,41,24.80
2017,08,04,09,42,24.90
2017,08,04,09,43,24.90
2017,08,04,09,44,25.00
2017,08,04,09,45,25.10
2017,08,04,09,46,25.10
2017,08,04,09,47,25.30
2017,08,04,09,48,25.30
2017,08,04,09,49,25.40
2017,08,04,09,50,25.40
2017,08,04,09,51,25.50
2017,08,04,09,52,25.50
2017,08,04,09,53,25.60
2017,08,04,09,54,25.60
2017,08,04,09,55,25.60
2017,08,04,09,56,25.70
2017,08,04,09,57,25.70
2017,08,04,09,58,25.60
2017,08,04,09,59,25.60
2017,08,04,10,00,25.60
2017,08,04,10,01,25.60
2017,08,04,10,02,25.60
2017,08,04,10,03,25.60
2017,08,04,10,04,25.60
2017,08,04,10,05,25.70
2017,08,04,10,06,25.70
2017,08,04,10,07,25.70
2017,08,04,10,08,25.70
2017,08,04,10,09,25.80
2017,08,04,10,10,25.80
2017,08,04,10,11,25.80
2017,08,04,10,12,25.80
2017,08,04,10,13,25.80
2017,08,04,10,14,25.80
2017,08,04,10,15,25.80
2017,08,04,10,16,25.80
2017,08,04,10,17,25.80
2017,08,04,10,18,25.80
2017,08,04,10,19,25.80
2017,08,04,10,20,25.70
2017,08,04,10,21,25.70
2017,08,04,10,22,25.80
2017,08,04,10,23,25.80
2017,08,04,10,24,25.80
2017,08,04,10,25,25.80
2017,08,04,10,26,25.80
2017,08,04,10,27,25.80
2017,08,04,10,28,25.80
2017,08,04,10,29,25.80
2017,08,04,10,30,25.80
2017,08,04,10,31,25.90
2017,08,04,10,32,25.90
2017,08,04,10,33,26.00
2017,08,04,10,34,26.10
2017,08,04,10,35,26.10
2017,08,04,10,36,26.20
2017,08,04,10,37,26.30
2017,08,04,10,38,26.40
2017,08,04,10,39,26.40
2017,08,04,10,40,26.50
2017,08,04,10,41,26.60
2017,08,04,10,42,26.60
2017,08,04,10,43,26.70
2017,08,04,10,44,26.70
2017,08,04,10,45,26.70
2017,08,04,10,46,26.70
2017,08,04,10,47,26.70
2017,08,04,10,48,26.70
2017,08,04,10,49,26.70
2017,08,04,10,50,26.60
2017,08,04,10,51,26.60
2017,08,04,10,52,26.50
2017,08,04,10,53,26.40
2017,08,04,10,54,26.40
2017,08,04,10,55,26.30
2017,08,04,10,56,26.20
2017,08,04,10,57,26.10
2017,08,04,10,58,26.10
2017,08,04,10,59,26.10
2017,08,04,11,00,26.10
2017,08,04,11,01,26.20
2017,08,04,11,02,26.30
2017,08,04,11,03,26.40
2017,08,04,11,04,26.50
2017,08,04,11,05,26.50
2017,08,04,11,06,26.50
2017,08,04,11,07,26.60
2017,08,04,11,08,26.60
2017,08,04,11,09,26.50
2017,08,04,11,10,26.50
2017,08,04,11,11,26.40
2017,08,04,11,12,26.50
2017,08,04,11,13,26.50
2017,08,04,11,14,26.60
2017,08,04,11,15,26.60
2017,08,04,11,16,26.70
2017,08,04,11,17,26.70
2017,08,04,11,18,26.80
2017,08,04,11,19,26.80
2017,08,04,11,20,26.80
2017,08,04,11,21,26.80
2017,08,04,11,22,26.80
2017,08,04,11,23,26.80
2017,08,04,11,24,26.80
2017,08,04,11,25,26.90
2017,08,04,11,26,26.90
2017,08,04,11,27,26.90
2017,08,04,11,28,26.90
2017,08,04,11,29,26.90
2017,08,04,11,30,26.90
2017,08,04,11,31,26.90
2017,08,04,11,32,27.00
2017,08,04,11,33,27.00
2017,08,04,11,34,27.10
2017,08,04,11,35,27.20
2017,08,04,11,36,27.20
2017,08,04,11,37,27.20
2017,08,04,11,38,27.20
2017,08,04,11,39,27.10
2017,08,04,11,40,27.10
2017,08,04,11,41,27.10
2017,08,04,11,42,27.10
2017,08,04,11,43,27.20
2017,08,04,11,44,27.20
2017,08,04,11,45,27.20
2017,08,04,11,46,27.30
2017,08,04,11,47,27.30
2017,08,04,11,48,27.40
2017,08,04,11,49,27.40
2017,08,04,11,50,27.40
2017,08,04,11,51,27.40
2017,08,04,11,52,27.40
2017,08,04,11,53,27.40
2017,08,04,11,54,27.40
2017,08,04,11,55,27.40
2017,08,04,11,56,27.50
2017,08,04,11,57,27.60
2017,08,04,11,58,27.60
2017,08,04,11,59,27.60
2017,08,04,12,00,27.60
2017,08,04,12,01,27.70
2017,08,04,12,02,27.80
2017,08,04,12,03,27.90
2017,08,04,12,04,28.00
2017,08,04,12,05,28.00
2017,08,04,12,06,28.10
2017,08,04,12,07,28.10
2017,08,04,12,08,28.20
2017,08,04,12,09,28.20
2017,08,04,12,10,28.20
2017,08,04,12,11,28.20
2017,08,04,12,12,28.20
2017,08,04,12,13,28.20
2017,08,04,12,14,28.20
2017,08,04,12,15,28.20
2017,08,04,12,16,28.20
2017,08,04,12,17,28.20
2017,08,04,12,18,28.20
2017,08,04,12,19,28.20
2017,08,04,12,20,28.20
2017,08,04,12,21,28.20
2017,08,04,12,22,28.30
2017,08,04,12,23,28.30
2017,08,04,12,24,28.30
2017,08,04,12,25,28.30
2017,08,04,12,26,28.30
2017,08,04,12,27,28.30
2017,08,04,12,28,28.30
2017,08,04,12,29,28.30
2017,08,04,12,30,28.40
2017,08,04,12,31,28.40
2017,08,04,12,32,28.40
2017,08,04,12,33,28.40
2017,08,04,12,34,28.40
2017,08,04,12,35,28.40
2017,08,04,12,36,28.40
2017,08,04,12,37,28.40
2017,08,04,12,38,28.40
2017,08,04,12,39,28.40
2017,08,04,12,40,28.40
2017,08,04,12,41,28.50
2017,08,04,12,42,28.50
2017,08,04,12,43,28.50
2017,08,04,12,44,28.50
2017,08,04,12,45,28.60
2017,08,04,12,46,28.60
2017,08,04,12,47,28.70
2017,08,04,12,48,28.70
2017,08,04,12,49,28.70
2017,08,04,12,50,28.70
2017,08,04,12,51,28.70
2017,08,04,12,52,28.80
2017,08,04,12,53,28.90
2017,08,04,12,54,29.00
2017,08,04,12,55,29.10
2017,08,04,12,56,29.10
2017,08,04,12,57,29.20
2017,08,04,12,58,29.20
2017,08,04,12,59,29.20
2017,08,04,13,00,29.20
2017,08,04,13,01,29.20
2017,08,04,13,02,29.20
2017,08,04,13,03,29.30
2017,08,04,13,04,29.30
2017,08,04,13,05,29.40
2017,08,04,13,06,29.40
2017,08,04,13,07,29.40
2017,08,04,13,08,29.40
2017,08,04,13,09,29.40
2017,08,04,13,10,29.40
2017,08,04,13,11,29.40
2017,08,04,13,12,29.50
2017,08,04,13,13,29.40
2017,08,04,13,14,29.40
2017,08,04,13,15,29.40
2017,08,04,13,16,29.40
2017,08,04,13,17,29.40
2017,08,04,13,18,29.30
2017,08,04,13,19,29.30
2017,08,04,13,20,29.30
2017,08,04,13,21,29.30
2017,08,04,13,22,29.30
2017,08,04,13,23,29.30
2017,08,04,13,24,29.30
2017,08,04,13,25,29.30
2017,08,04,13,26,29.30
2017,08,04,13,27,29.30
2017,08,04,13,28,29.30
2017,08,04,13,29,29.30
2017,08,04,13,30,29.30
2017,08,04,13,31,29.30
2017,08,04,13,32,29.40
2017,08,04,13,33,29.40
2017,08,04,13,34,29.40
2017,08,04,13,35,29.40
2017,08,04,13,36,29.40
2017,08,04,13,37,29.40
2017,08,04,13,38,29.50
2017,08,04,13,39,29.60
2017,08,04,13,40,29.60
2017,08,04,13,41,29.60
2017,08,04,13,42,29.50
2017,08,04,13,43,29.50
2017,08,04,13,44,29.50
2017,08,04,13,45,29.50
2017,08,04,13,46,29.50
2017,08,04,13,47,29.40
2017,08,04,13,48,29.40
2017,08,04,13,49,29.40
2017,08,04,13,50,29.40
2017,08,04,13,51,29.40
2017,08,04,13,52,29.30
2017,08,04,13,53,29.30
2017,08,04,13,54,29.30
2017,08,04,13,55,29.40
2017,08,04,13,56,29.40
2017,08,04,13,57,29.40
2017,08,04,13,58,29.50
2017,08,04,13,59,29.60
2017,08,04,14,00,29.70
2017,08,04,14,01,29.80
2017,08,04,14,02,29.80
2017,08,04,14,03,29.80
2017,08,04,14,04,29.80
2017,08,04,14,05,29.80
2017,08,04,14,06,29.80
2017,08,04,14,07,29.80
2017,08,04,14,08,29.80
2017,08,04,14,09,29.80
2017,08,04,14,10,29.70
2017,08,04,14,11,29.60
2017,08,04,14,12,29.40
2017,08,04,14,13,29.20
2017,08,04,14,14,29.00
2017,08,04,14,15,28.70
2017,08,04,14,16,28.40
2017,08,04,14,17,28.20
2017,08,04,14,18,28.00
2017,08,04,14,19,27.90
2017,08,04,14,20,27.70
2017,08,04,14,21,27.50
2017,08,04,14,22,27.30
2017,08,04,14,23,27.10
2017,08,04,14,24,26.80
2017,08,04,14,25,26.60
2017,08,04,14,26,26.50
2017,08,04,14,27,26.30
2017,08,04,14,28,26.20
2017,08,04,14,29,26.10
2017,08,04,14,30,25.90
2017,08,04,14,31,25.80
2017,08,04,14,32,25.70
2017,08,04,14,33,25.70
2017,08,04,14,34,25.70
2017,08,04,14,35,25.70
2017,08,04,14,36,25.60
2017,08,04,14,37,25.50
2017,08,04,14,38,25.30
2017,08,04,14,39,25.20
2017,08,04,14,40,25.10
2017,08,04,14,41,25.00
2017,08,04,14,42,24.90
2017,08,04,14,43,24.80
2017,08,04,14,44,24.80
2017,08,04,14,45,24.80
2017,08,04,14,46,24.70
2017,08,04,14,47,24.70
2017,08,04,14,48,24.70
2017,08,04,14,49,24.80
2017,08,04,14,50,24.80
2017,08,04,14,51,24.90
2017,08,04,14,52,25.00
2017,08,04,14,53,25.00
2017,08,04,14,54,25.00
2017,08,04,14,55,25.00
2017,08,04,14,56,24.90
2017,08,04,14,57,25.00
2017,08,04,14,58,25.00
2017,08,04,14,59,25.00
2017,08,04,15,00,24.90
2017,08,04,15,01,24.80
2017,08,04,15,02,24.70
2017,08,04,15,03,24.70
2017,08,04,15,04,24.70
2017,08,04,15,05,24.60
2017,08,04,15,06,24.60
2017,08,04,15,07,24.60
2017,08,04,15,08,24.50
2017,08,04,15,09,24.50
2017,08,04,15,10,24.60
2017,08,04,15,11,24.60
2017,08,04,15,12,24.50
2017,08,04,15,13,24.50
2017,08,04,15,14,24.50
2017,08,04,15,15,24.50
2017,08,04,15,16,24.50
2017,08,04,15,17,24.50
2017,08,04,15,18,24.50
2017,08,04,15,19,24.50
2017,08,04,15,20,24.40
2017,08,04,15,21,24.40
2017,08,04,15,22,24.30
2017,08,04,15,23,24.30
2017,08,04,15,24,24.30
2017,08,04,15,25,24.30
2017,08,04,15,26,24.30
2017,08,04,15,27,24.30
2017,08,04,15,28,24.30
2017,08,04,15,29,24.30
2017,08,04,15,30,24.20
2017,08,04,15,31,24.20
2017,08,04,15,32,24.10
2017,08,04,15,33,24.10
2017,08,04,15,34,24.10
2017,08,04,15,35,24.20
2017,08,04,15,36,24.20
2017,08,04,15,37,24.30
2017,08,04,15,38,24.40
2017,08,04,15,39,24.60
2017,08,04,15,40,24.70
2017,08,04,15,41,24.80
2017,08,04,15,42,24.90
2017,08,04,15,43,25.00
2017,08,04,15,44,25.10
2017,08,04,15,45,25.20
2017,08,04,15,46,25.20
2017,08,04,15,47,25.30
2017,08,04,15,48,25.40
2017,08,04,15,49,25.40
2017,08,04,15,50,25.40
2017,08,04,15,51,25.40
2017,08,04,15,52,25.30
2017,08,04,15,53,25.20
2017,08,04,15,54,25.10
2017,08,04,15,55,25.00
2017,08,04,15,56,24.90
2017,08,04,15,57,24.80
2017,08,04,15,58,24.70
2017,08,04,15,59,24.60
2017,08,04,16,00,24.60
2017,08,04,16,01,24.60
2017,08,04,16,02,24.60
2017,08,04,16,03,24.60
2017,08,04,16,04,24.60
2017,08,04,16,05,24.70
2017,08,04,16,06,24.70
2017,08,04,16,07,24.80
2017,08,04,16,08,24.90
2017,08,04,16,09,24.90
2017,08,04,16,10,24.90
2017,08,04,16,11,25.00
2017,08,04,16,12,25.00
2017,08,04,16,13,25.10
2017,08,04,16,14,25.10
2017,08,04,16,15,25.10
2017,08,04,16,16,25.20
2017,08,04,16,17,25.20
2017,08,04,16,18,25.20
2017,08,04,16,19,25.30
2017,08,04,16,20,25.30
2017,08,04,16,21,25.30
2017,08,04,16,22,25.30
2017,08,04,16,23,25.40
2017,08,04,16,24,25.50
2017,08,04,16,25,25.50
2017,08,04,16,26,25.60
2017,08,04,16,27,25.60
2017,08,04,16,28,25.70
2017,08,04,16,29,25.70
2017,08,04,16,30,25.70
2017,08,04,16,31,25.70
2017,08,04,16,32,25.70
2017,08,04,16,33,25.70
2017,08,04,16,34,25.80
2017,08,04,16,35,25.80
2017,08,04,16,36,25.90
2017,08,04,16,37,25.90
2017,08,04,16,38,26.00
2017,08,04,16,39,26.00
2017,08,04,16,40,26.10
2017,08,04,16,41,26.20
2017,08,04,16,42,26.20
2017,08,04,16,43,26.20
2017,08,04,16,44,26.20
2017,08,04,16,45,26.20
2017,08,04,16,46,26.20
2017,08,04,16,47,26.10
2017,08,04,16,48,26.00
2017,08,04,16,49,26.00
2017,08,04,16,50,25.90
2017,08,04,16,51,25.90
2017,08,04,16,52,25.90
2017,08,04,16,53,25.90
2017,08,04,16,54,25.90
2017,08,04,16,55,25.90
2017,08,04,16,56,25.90
2017,08,04,16,57,25.90
2017,08,04,16,58,25.90
2017,08,04,16,59,25.90
2017,08,04,17,00,25.90
2017,08,04,17,01,25.90
2017,08,04,17,02,25.80
2017,08,04,17,03,25.80
2017,08,04,17,04,25.80
2017,08,04,17,05,25.80
2017,08,04,17,06,25.80
2017,08,04,17,07,25.80
2017,08,04,17,08,25.80
2017,08,04,17,09,25.80
2017,08,04,17,10,25.70
2017,08,04,17,11,25.70
2017,08,04,17,12,25.70
2017,08,04,17,13,25.70
2017,08,04,17,14,25.70
2017,08,04,17,15,25.70
2017,08,04,17,16,25.70
2017,08,04,17,17,25.70
2017,08,04,17,18,25.70
2017,08,04,17,19,25.70